Regional Weather Roundup
Issued by NWS

Home | Current Version | Previous Version | Graphics & Text | Print | Product List | Glossary On
Versions: 1 2 3 4 5 6 7 8 9 10 11 12 13 14 15 16 17 18 19 20 21 22 23 24 25 26 27 28 29 30 31 32 33 34 35 36 37 38 39 40 41 42 43 44 45 46 47 48 49 50
000
ASUS43 KBIS 181602
RWRND

NORTH DAKOTA REGIONAL WEATHER ROUNDUP
NATIONAL WEATHER SERVICE BISMARCK ND
1100 AM CDT FRI AUG 18 2017

NOTE: "FAIR" INDICATES FEW OR NO CLOUDS BELOW 12,000 FEET WITH NO
SIGNIFICANT WEATHER AND/OR OBSTRUCTIONS TO VISIBILITY.


NDZ001>003-009>011-017-181700-
NORTHWEST NORTH DAKOTA

CITY           SKY/WX    TMP DP  RH WIND       PRES   REMARKS
WILLISTON      SUNNY     69  56  62 CALM      30.00R
MINOT          SUNNY     73  55  53 NW10      29.93S
MINOT AFB      SUNNY     73  53  49 NW10      29.92S
$$

NDZ018>021-031>035-040>046-181700-
SOUTHWEST NORTH DAKOTA

CITY           SKY/WX    TMP DP  RH WIND       PRES   REMARKS
BISMARCK       SUNNY     70  57  63 NW9       29.97R
DICKINSON      SUNNY     73  53  49 W9        30.00R
GARRISON         N/A     70  57  63 NW7       29.95S
HETTINGER ARPT SUNNY     72  52  49 NW6       30.03R
$$

NDZ004>008-012>016-024-026-027-054-181700-
NORTHEAST NORTH DAKOTA

CITY           SKY/WX    TMP DP  RH WIND       PRES   REMARKS
GRAND FORKS    PTSUNNY   76  59  55 N12       29.85S
GRND FRKS AFB  MOSUNNY   74  59  60 NW5       29.86S
DEVILS LAKE    CLOUDY    69  57  65 NW13      29.91R
$$

NDZ022-023-025-028>030-036>039-047>053-181700-
SOUTHEAST NORTH DAKOTA

CITY           SKY/WX    TMP DP  RH WIND       PRES   REMARKS
FARGO          CLOUDY    71  61  70 CALM      29.88S
JAMESTOWN      CLOUDY    68  60  75 N8        29.90R
$$





USA.gov is the U.S. government's official web portal to all federal, state and local government web resources and services.